This demonstration page uses our WeatherBlox Daily Observations layout. Learn more.

Left ArrowRight Arrow

Hourly Observations for January 18, 2015

Temp ( °F °C ) Dew Point ( °F °C ) Humidity (%) Winds ( mph kmh ) Pressure ( in mb ) Visibility ( mi km ) Precip ( " mm )
12:51 am 00:51 Clear 40 4.4 30 -1.1 68 68 SE 3 6 30.27 1025 10 16 N/A
1:51 am 01:51 Clear 37 2.8 30 -1.1 76 76 NW 8 13 30.28 1025 10 16 N/A
2:51 am 02:51 Clear 36 2.2 29 -1.7 76 76 N N/A 30.27 1025 10 16 N/A
3:51 am 03:51 Clear 37 2.8 30 -1.1 76 76 N N/A 30.27 1025 10 16 N/A
4:51 am 04:51 Clear 35 1.7 29 -1.7 78 78 N N/A 30.28 1025 10 16 N/A
5:51 am 05:51 Clear 37 2.8 29 -1.7 73 73 E 7 11 30.29 1026 10 16 N/A
6:51 am 06:51 Clear 40 4.4 28 -2.2 63 63 SE 5 7 30.31 1026 10 16 N/A
7:51 am 07:51 Sunny 37 2.8 27 -2.8 67 67 SSE 13 20 30.32 1027 10 16 N/A
8:51 am 08:51 Sunny 46 7.8 29 -1.7 51 51 SE 12 19 30.32 1027 10 16 N/A
9:51 am 09:51 Sunny 53 11.7 29 -1.7 40 40 SE 12 19 30.32 1027 10 16 N/A
10:51 am 10:51 Sunny 57 13.9 28 -2.2 33 33 S 7 11 30.30 1026 10 16 N/A
11:51 am 11:51 Sunny 60 15.6 28 -2.2 30 30 SSE 7 11 30.26 1025 10 16 N/A
12:51 pm 12:51 Sunny 63 17.2 25 -3.9 24 24 S 5 7 30.22 1023 10 16 N/A
1:51 pm 13:51 Sunny 66 18.9 25 -3.9 21 21 WSW 3 6 30.18 1022 10 16 N/A
2:51 pm 14:51 Sunny 67 19.4 25 -3.9 20 20 W 5 7 30.15 1021 10 16 N/A
3:51 pm 15:51 Sunny 68 20 24 -4.4 19 19 W 3 6 30.13 1020 10 16 N/A
4:51 pm 16:51 Sunny 67 19.4 26 -3.3 21 21 WNW 6 9 30.14 1021 10 16 N/A
5:51 pm 17:51 Clear 60 15.6 31 -0.6 33 33 NW 5 7 30.15 1021 10 16 N/A
6:51 pm 18:51 Clear 56 13.3 32 undefined 40 40 NNW 6 9 30.16 1021 10 16 N/A
7:51 pm 19:51 Clear 50 10 34 1.1 54 54 N 6 9 30.19 1022 10 16 N/A
8:51 pm 20:51 Clear 50 10 34 1.1 54 54 NW 3 6 30.18 1022 10 16 N/A
9:51 pm 21:51 Clear 47 8.3 32 undefined 56 56 E 7 11 30.18 1022 10 16 N/A
10:51 pm 22:51 Clear 45 7.2 33 0.6 63 63 N N/A 30.18 1022 10 16 N/A
11:51 pm 23:51 Clear 43 6.1 34 1.1 71 71 N N/A 30.17 1022 10 16 N/A

Powered by AerisWeather